Fulton, NY

9:41 AM EDT on September 15, 2019 (GMT -0400)
Oswego County

Weather History for KFZY - May, 2019

Change the Weather History Date:

Friday, May 24, 2019

  Actual Average (WUND) Record (WUND)
Temperature  
Mean Temperature 58 °F -  
Max Temperature 64 °F - - (-1)
Min Temperature 48 °F - - (-1)
Degree Days  
Heating Degree Days 8    
Growing Degree Days 8 (Base 50)    
Moisture  
Dew Point 47 °F    
Average Humidity 70    
Maximum Humidity 86    
Minimum Humidity 58    
Precipitation  
Precipitation 0.00 in - - ()
Sea Level Pressure  
Sea Level Pressure 30.03 in    
Wind  
Wind Speed 12 mph (WNW)    
Max Wind Speed 16 mph    
Max Gust Speed 25 mph    
Visibility 10 miles    
Events      
Averages and records for this station are not official NWS values.
T = Trace of Precipitation, MM = Missing Value Source: NWS Daily Summary

Daily Weather History Graph

Daily Weather History Graph

Search for Another Location

Airport or City:

Astronomy

May. 24, 2019 Rise Set
Actual Time 5:33 AM EDT 8:32 PM EDT
Civil Twilight 4:59 AM EDT 9:06 PM EDT
Nautical Twilight 4:16 AM EDT 9:49 PM EDT
Astronomical Twilight 3:25 AM EDT 10:40 PM EDT
Moon 12:55 AM EDT (5/24) 10:32 AM EDT (5/24)
Length of Visible Light 16h 06m
Length of Day
14h 58m
Waning Gibbous, 69% of the Moon is Illuminated
May 24
Waning Gibbous
May 26
Last Quarter
Jun 3
New
Jun 10
First Quarter
Jun 17
Full

Hourly Weather History & Observations

Time (EDT) Temp. Dew Point Humidity Pressure Visibility Wind Dir Wind Speed Gust Speed Precip Events Conditions
12:54 AM 59.0 °F 46.0 °F 62% 29.85 in 10.0 mi West 15.0 mph 20.7 mph N/A   Overcast
1:54 AM 57.0 °F 44.1 °F 62% 29.86 in 10.0 mi West 13.8 mph 21.9 mph N/A   Mostly Cloudy
2:54 AM 54.0 °F 44.1 °F 69% 29.86 in 10.0 mi West 13.8 mph 21.9 mph N/A   Scattered Clouds
3:54 AM 54.0 °F 44.1 °F 69% 29.87 in 10.0 mi West 16.1 mph 23.0 mph N/A   Clear
4:54 AM 53.1 °F 44.1 °F 71% 29.88 in 10.0 mi WNW 13.8 mph 20.7 mph N/A   Scattered Clouds
5:54 AM 52.0 °F 44.1 °F 74% 29.91 in 10.0 mi WNW 12.7 mph 25.3 mph N/A   Overcast
6:04 AM 53.1 °F 44.1 °F 71% 29.92 in 10.0 mi West 15.0 mph 24.2 mph N/A   Overcast
6:54 AM 53.1 °F 45.0 °F 74% 29.94 in 10.0 mi WNW 13.8 mph 21.9 mph N/A   Overcast
7:54 AM 54.0 °F 45.0 °F 72% 29.98 in 10.0 mi West 15.0 mph 24.2 mph N/A   Overcast
8:54 AM 55.0 °F 46.9 °F 74% 30.00 in 10.0 mi WNW 10.4 mph 18.4 mph N/A   Overcast
9:54 AM 54.0 °F 46.0 °F 75% 30.01 in 10.0 mi West 11.5 mph - N/A   Overcast
10:54 AM 54.0 °F 46.9 °F 77% 30.04 in 10.0 mi West 10.4 mph - N/A   Overcast
11:54 AM 55.0 °F 46.9 °F 74% 30.06 in 10.0 mi WNW 9.2 mph - N/A   Overcast
12:54 PM 57.9 °F 48.0 °F 70% 30.09 in 10.0 mi WNW 8.1 mph - N/A   Overcast
1:54 PM 62.1 °F 48.9 °F 62% 30.09 in 10.0 mi NW 10.4 mph - N/A   Overcast
2:54 PM 63.0 °F 48.9 °F 60% 30.09 in 10.0 mi WNW 13.8 mph 19.6 mph N/A   Overcast
3:54 PM 63.0 °F 48.0 °F 58% 30.12 in 10.0 mi WNW 12.7 mph - N/A   Overcast
4:54 PM 62.1 °F 48.0 °F 60% 30.12 in 10.0 mi West 9.2 mph - N/A   Overcast
5:54 PM 63.0 °F 48.0 °F 58% 30.13 in 10.0 mi NW 8.1 mph - N/A   Clear
6:54 PM 63.0 °F 48.0 °F 58% 30.14 in 10.0 mi NW 8.1 mph - N/A   Clear
7:54 PM 60.1 °F 48.0 °F 64% 30.15 in 10.0 mi NW 4.6 mph - N/A   Mostly Cloudy
8:54 PM 55.9 °F 48.9 °F 77% 30.15 in 10.0 mi Calm Calm - N/A   Mostly Cloudy
9:54 PM 55.0 °F 48.9 °F 80% 30.14 in 10.0 mi Calm Calm - N/A   Overcast
10:54 PM 52.0 °F 48.0 °F 86% 30.16 in 10.0 mi East 3.5 mph - N/A   Clear
11:54 PM 48.9 °F 45.0 °F 86% 30.18 in 10.0 mi Calm Calm - N/A   Clear